Tracking 19145 objects as of 25-Apr-2018
HD Live streaming from Space Station
objects crossing your sky now

COSMOS 2184

Track COSMOS 2184 now!
10-day predictions
COSMOS 2184 is classified as:


NORAD ID: 21937
Int'l Code: 1992-020A
Perigee: 970.2 km
Apogee: 1,020.7 km
Inclination: 82.9 °
Period: 104.9 minutes
Semi major axis: 7366 km
RCS: 2.328 m2 (large)
Launch date: April 15, 1992
Source: Commonwealth of Independent States (former USSR) (CIS)
Launch site: PLESETSK MISSILE AND SPACE COMPLEX (PKMTR)
aabbcc
Your satellite tracking list
Your tracking list is empty




NASA's NSSDC Master Catalog

Two Line Element Set (TLE):
1 21937U 92020A   18114.63556823 +.00000036 +00000-0 +21773-4 0  9991
2 21937 082.9318 155.9536 0034255 144.7186 328.8728 13.73150816303952
Source of the keplerian elements: AFSPC